H1 CPF 2 NER 2023 12 11 9 345 01 glonass133 H2 1403201 9133 40001 2023 12 11 0 0 0 2023 12 14 23 45 0 900 1 1 0 0 0 1 H9 10 0 60289 0.00000 0 2807916.409 25284519.489 1661197.218 10 0 60289 900.00000 0 3010503.997 25265430.015 -1579544.551 10 0 60289 1800.00000 0 3138225.361 24840983.136 -4789545.572 10 0 60289 2700.00000 0 3137154.184 24030975.510 -7906328.230 10 0 60289 3600.00000 0 2958754.034 22867817.142 -10869227.849 10 0 60289 4500.00000 0 2562184.531 21395177.034 -13620581.975 10 0 60289 5400.00000 0 1916281.689 19666173.653 -16106859.806 10 0 60289 6300.00000 0 1001127.327 17741186.901 -18279709.027 10 0 60289 7200.00000 0 -190859.910 15685384.255 -20096899.135 10 0 60289 8100.00000 0 -1654358.892 13566065.544 -21523142.745 10 0 60289 9000.00000 0 -3371130.346 11449938.225 -22530779.057 10 0 60289 9900.00000 0 -5310552.429 9400437.529 -23100306.541 10 0 60289 10800.00000 0 -7430685.547 7475203.528 -23220755.155 10 0 60289 11700.00000 0 -9679822.181 5723820.107 -22889891.543 10 0 60289 12600.00000 0 -11998457.191 4185909.459 -22114253.993 10 0 60289 13500.00000 0 -14321596.591 2889660.479 -20909017.160 10 0 60289 14400.00000 0 -16581308.767 1850851.003 -19297689.760 10 0 60289 15300.00000 0 -18709412.032 1072403.068 -17311651.515 10 0 60289 16200.00000 0 -20640186.858 544487.949 -14989538.659 10 0 60289 17100.00000 0 -22313000.153 245174.779 -12376490.022 10 0 60289 18000.00000 0 -23674732.561 141593.831 -9523268.418 10 0 60289 18900.00000 0 -24681908.064 191564.098 -6485274.360 10 0 60289 19800.00000 0 -25302437.517 345615.447 -3321471.173 10 0 60289 20700.00000 0 -25516903.839 549319.194 -93242.356 10 0 60289 21600.00000 0 -25319335.731 745828.168 3136796.725 10 0 60289 22500.00000 0 -24717438.051 878518.603 6306009.856 10 0 60289 23400.00000 0 -23732269.700 893622.116 9352950.295 10 0 60289 24300.00000 0 -22397382.781 742736.530 12218547.163 10 0 60289 25200.00000 0 -20757459.220 385109.469 14847245.189 10 0 60289 26100.00000 0 -18866501.804 -210401.725 17188076.119 10 0 60289 27000.00000 0 -16785654.989 -1063776.656 19195641.527 10 0 60289 27900.00000 0 -14580745.973 -2182751.044 20830988.579 10 0 60289 28800.00000 0 -12319648.024 -3562254.672 22062362.325 10 0 60289 29700.00000 0 -10069575.169 -5184392.827 22865820.466 10 0 60289 30600.00000 0 -7894420.089 -7018973.525 23225699.075 10 0 60289 31500.00000 0 -5852245.218 -9024560.099 23134920.374 10 0 60289 32400.00000 0 -3993030.699 -11150007.011 22595136.487 10 0 60289 33300.00000 0 -2356772.239 -13336416.599 21616706.014 10 0 60289 34200.00000 0 -972007.621 -15519436.800 20218503.153 10 0 60289 35100.00000 0 145167.152 -17631805.429 18427562.216 10 0 60289 36000.00000 0 991551.224 -19606035.919 16278563.361 10 0 60289 36900.00000 0 1576743.037 -21377133.015 13813168.476 10 0 60289 37800.00000 0 1922499.450 -22885225.118 11079219.151 10 0 60289 38700.00000 0 2061577.000 -24078002.904 8129811.524 10 0 60289 39600.00000 0 2036104.398 -24912861.465 5022265.538 10 0 60289 40500.00000 0 1895555.438 -25358655.275 1817008.567 10 0 60289 41400.00000 0 1694408.665 -25396991.352 -1423604.674 10 0 60289 42300.00000 0 1489593.721 -25023005.291 -4636512.294 10 0 60289 43200.00000 0 1337833.665 -24245586.771 -7759180.875 10 0 60289 44100.00000 0 1292997.094 -23087044.469 -10730831.545 10 0 60289 45000.00000 0 1403573.636 -21582224.217 -13493631.468 10 0 60289 45900.00000 0 1710381.065 -19777117.536 -15993826.631 10 0 60289 46800.00000 0 2244602.358 -17727019.275 -18182793.095 10 0 60289 47700.00000 0 3026236.797 -15494312.217 -20017985.698 10 0 60289 48600.00000 0 4063031.456 -13145972.021 -21463765.618 10 0 60289 49500.00000 0 5349938.859 -10750897.502 -22492090.796 10 0 60289 50400.00000 0 6869124.187 -8377178.197 -23083056.187 10 0 60289 51300.00000 0 8590522.130 -6089413.403 -23225273.944 10 0 60289 52200.00000 0 10472920.319 -3946194.267 -22916086.848 10 0 60289 53100.00000 0 12465524.139 -1997853.259 -22161611.582 10 0 60289 54000.00000 0 14509937.627 -284573.818 -20976611.679 10 0 60289 54900.00000 0 16542477.828 1165062.425 -19384203.186 10 0 60289 55800.00000 0 18496726.084 2335031.870 -17415399.200 10 0 60289 56700.00000 0 20306209.919 3222290.556 -15108502.381 10 0 60289 57600.00000 0 21907103.802 3836645.438 -12508357.427 10 0 60289 58500.00000 0 23240836.229 4200082.617 -9665478.027 10 0 60289 59400.00000 0 24256494.527 4345582.464 -6635065.319 10 0 60289 60300.00000 0 24912927.234 4315472.946 -3475936.762 10 0 60289 61200.00000 0 25180456.433 4159391.701 -249386.253 10 0 60289 62100.00000 0 25042128.788 3931943.688 2982002.496 10 0 60289 63000.00000 0 24494453.234 3690153.826 6155566.407 10 0 60289 63900.00000 0 23547594.643 3490822.515 9209773.908 10 0 60289 64800.00000 0 22225015.521 3387895.844 12085412.982 10 0 60289 65700.00000 0 20562580.672 3429961.535 14726733.678 10 0 60289 66600.00000 0 18607162.045 3657976.283 17082523.283 10 0 60289 67500.00000 0 16414801.661 4103320.406 19107093.867 10 0 60289 68400.00000 0 14048508.658 4786261.990 20761163.622 10 0 60289 69300.00000 0 11575781.546 5714895.644 22012615.467 10 0 60289 70200.00000 0 9065957.974 6884601.237 22837118.751 10 0 60289 71100.00000 0 6587501.270 8278046.487 23218602.386 10 0 60289 72000.00000 0 4205335.664 9865734.625 23149570.395 10 0 60289 72900.00000 0 1978340.021 11607075.853 22631253.659 10 0 60289 73800.00000 0 -42896.582 13451939.488 21673594.549 10 0 60289 74700.00000 0 -1817964.721 15342623.541 20295064.060 10 0 60289 75600.00000 0 -3318091.809 17216160.926 18522314.115 10 0 60289 76500.00000 0 -4527106.271 19006867.117 16389670.751 10 0 60289 77400.00000 0 -5441868.707 20649023.444 13938476.942 10 0 60289 78300.00000 0 -6072152.280 22079584.095 11216296.880 10 0 60289 79200.00000 0 -6439977.623 23240793.298 8275996.335 10 0 60289 80100.00000 0 -6578430.545 24082602.343 5174716.552 10 0 60289 81000.00000 0 -6530012.869 24564784.106 1972761.490 10 0 60289 81900.00000 0 -6344596.649 24658655.150 -1267579.719 10 0 60289 82800.00000 0 -6077069.120 24348331.776 -4483251.540 10 0 60289 83700.00000 0 -5784769.078 23631466.111 -7611667.471 10 0 60289 84600.00000 0 -5524824.487 22519430.340 -10591937.075 10 0 60289 85500.00000 0 -5351505.323 21036940.637 -13366059.643 10 0 60290 0.00000 0 -5313705.091 19221136.478 -15880060.056 10 0 60290 900.00000 0 -5452658.803 17120152.857 -18085045.292 10 0 60290 1800.00000 0 -5799995.036 14791247.984 -19938157.143 10 0 60290 2700.00000 0 -6376205.136 12298562.033 -21403406.929 10 0 60290 3600.00000 0 -7189594.912 9710603.359 -22452372.645 10 0 60290 4500.00000 0 -8235763.366 7097566.654 -23064746.737 10 0 60290 5400.00000 0 -9497630.686 4528595.162 -23228724.239 10 0 60290 6300.00000 0 -10946014.433 2069100.899 -22941224.388 10 0 60290 7200.00000 0 -12540729.799 -221745.966 -22207942.164 10 0 60290 8100.00000 0 -14232167.801 -2293254.936 -21043229.455 10 0 60290 9000.00000 0 -15963285.328 -4105088.235 -19469808.682 10 0 60290 9900.00000 0 -17671923.745 -5628692.556 -17518324.930 10 0 60290 10800.00000 0 -19293359.084 -6848231.574 -15226745.562 10 0 60290 11700.00000 0 -20762977.249 -7760982.215 -12639619.099 10 0 60290 12600.00000 0 -22018962.379 -8377180.015 -9807207.865 10 0 60290 13500.00000 0 -23004886.047 -8719321.948 -6784511.210 10 0 60290 14400.00000 0 -23672089.057 -8820957.694 -3630198.210 10 0 60290 15300.00000 0 -23981756.267 -8725021.611 -405470.567 10 0 60290 16200.00000 0 -23906597.694 -8481776.781 2827122.329 10 0 60290 17100.00000 0 -23432065.584 -8146458.658 6004893.254 10 0 60290 18000.00000 0 -22557056.520 -7776718.201 9066228.554 10 0 60290 18900.00000 0 -21294069.093 -7429972.656 11951777.820 10 0 60290 19800.00000 0 -19668810.341 -7160775.846 14605599.084 10 0 60290 20700.00000 0 -17719267.029 -7018318.819 16976237.688 10 0 60290 21600.00000 0 -15494280.026 -7044166.163 19017718.467 10 0 60290 22500.00000 0 -13051680.464 -7270323.314 20690432.578 10 0 60290 23400.00000 0 -10456064.486 -7717716.366 21961902.352 10 0 60290 24300.00000 0 -7776298.141 -8395148.693 22807409.881 10 0 60290 25200.00000 0 -5082855.041 -9298778.904 23210477.564 10 0 60290 26100.00000 0 -2445096.290 -10412143.011 23163191.427 10 0 60290 27000.00000 0 71395.432 -11706721.171 22666360.899 10 0 60290 27900.00000 0 2407317.894 -13143026.659 21729511.554 10 0 60290 28800.00000 0 4511884.298 -14672173.026 20370710.289 10 0 60290 29700.00000 0 6344698.924 -16237855.214 18616225.459 10 0 60290 30600.00000 0 7877195.834 -17778662.950 16500027.526 10 0 60290 31500.00000 0 9093580.949 -19230630.343 14063138.837 10 0 60290 32400.00000 0 9991238.393 -20529915.316 11352844.212 10 0 60290 33300.00000 0 10580584.360 -21615496.457 8421776.848 10 0 60290 34200.00000 0 10884374.903 -22431773.596 5326896.871 10 0 60290 35100.00000 0 10936497.214 -22930961.956 2128382.246 10 0 60290 36000.00000 0 10780295.927 -23075178.073 -1111546.174 10 0 60290 36900.00000 0 10466505.875 -22838128.352 -4329841.959 10 0 60290 37800.00000 0 10050879.678 -22206327.876 -7463868.267 10 0 60290 38700.00000 0 9591611.636 -21179796.890 -10452625.815 10 0 60290 39600.00000 0 9146668.227 -19772204.653 -13237948.652 10 0 60290 40500.00000 0 8771139.406 -18010453.842 -15765643.488 10 0 60290 41400.00000 0 8514723.959 -15933722.498 -17986549.643 10 0 60290 42300.00000 0 8419456.268 -13592003.552 -19857498.413 10 0 60290 43200.00000 0 8517771.319 -11044203.135 -21342153.008 10 0 60290 44100.00000 0 8830990.156 -8355877.355 -22411712.835 10 0 60290 45000.00000 0 9368289.958 -5596702.257 -23045468.758 10 0 60290 45900.00000 0 10126202.186 -2837782.566 -23231199.146 10 0 60290 46800.00000 0 11088659.819 -148911.173 -22965399.703 10 0 60290 47700.00000 0 12227591.512 2404106.894 -22253343.312 10 0 60290 48600.00000 0 13504037.491 4761955.372 -21108969.435 10 0 60290 49500.00000 0 14869740.135 6874029.551 -19554605.764 10 0 60290 50400.00000 0 16269142.308 8700289.669 -17620527.979 10 0 60290 51300.00000 0 17641709.543 10212669.351 -15344366.459 10 0 60290 52200.00000 0 18924478.610 11395982.112 -12770371.607 10 0 60290 53100.00000 0 20054725.605 12248289.904 -9948552.169 10 0 60290 54000.00000 0 20972641.677 12780720.205 -6933703.256 10 0 60290 54900.00000 0 21623904.234 13016741.077 -3784342.902 10 0 60290 55800.00000 0 21962035.799 12990926.232 -561577.804 10 0 60290 56700.00000 0 21950451.614 12747263.364 2672079.843 10 0 60290 57600.00000 0 21564110.065 12337077.989 5853921.527 10 0 60290 58500.00000 0 20790696.642 11816660.967 8922254.267 10 0 60290 59400.00000 0 19631291.580 11244700.131 11817591.855 10 0 60290 60300.00000 0 18100492.879 10679624.421 14483802.675 10 0 60290 61200.00000 0 16225989.025 10176972.418 16869192.255 10 0 60290 62100.00000 0 14047598.550 9786895.973 18927500.061 10 0 60290 63000.00000 0 11615815.603 9551903.828 20618791.811 10 0 60290 63900.00000 0 8989921.092 9504940.049 21910230.559 10 0 60290 64800.00000 0 6235736.811 9667878.065 22776712.158 10 0 60290 65700.00000 0 3423114.601 10050493.853 23201353.169 10 0 60290 66600.00000 0 623263.598 10649961.911 23175821.938 10 0 60290 67500.00000 0 -2093974.762 11450895.954 22700506.361 10 0 60290 68400.00000 0 -4662791.990 12425933.732 21784514.700 10 0 60290 69300.00000 0 -7023908.332 13536842.597 20445508.808 10 0 60290 70200.00000 0 -9126796.115 14736100.759 18709372.111 10 0 60290 71100.00000 0 -10931538.765 15968889.048 16609717.761 10 0 60290 72000.00000 0 -12410248.323 17175410.518 14187245.444 10 0 60290 72900.00000 0 -13547982.573 18293441.081 11488958.356 10 0 60290 73800.00000 0 -14343123.556 19261004.150 8567254.727 10 0 60290 74700.00000 0 -14807201.793 20019056.491 5478911.088 10 0 60290 75600.00000 0 -14964173.888 20514071.514 2283976.892 10 0 60290 76500.00000 0 -14849184.355 20700410.136 -955397.809 10 0 60290 77400.00000 0 -14506864.515 20542377.933 -4176178.215 10 0 60290 78300.00000 0 -13989241.124 20015880.465 -7315679.652 10 0 60290 79200.00000 0 -13353344.146 19109605.558 -10312796.445 10 0 60290 80100.00000 0 -12658615.968 17825681.446 -13109199.761 10 0 60290 81000.00000 0 -11964232.815 16179781.988 -15650480.150 10 0 60290 81900.00000 0 -11326452.725 14200673.709 -17887211.754 10 0 60290 82800.00000 0 -10796103.164 11929223.160 -19775916.937 10 0 60290 83700.00000 0 -10416315.108 9416905.898 -21279912.346 10 0 60290 84600.00000 0 -10220599.685 6723879.334 -22370020.061 10 0 60290 85500.00000 0 -10231348.644 3916699.973 -23025130.314 10 0 60291 0.00000 0 -10458821.674 1065780.473 -23232605.447 10 0 60291 900.00000 0 -10900663.079 -1757309.225 -22988517.932 10 0 60291 1800.00000 0 -11541967.280 -4482580.796 -22297718.396 10 0 60291 2700.00000 0 -12355890.295 -7044298.217 -21173733.349 10 0 60291 3600.00000 0 -13304780.683 -9383466.169 -19638494.821 10 0 60291 4500.00000 0 -14341782.054 -11450035.235 -17721907.764 10 0 60291 5400.00000 0 -15412839.393 -13204733.225 -15461263.915 10 0 60291 6300.00000 0 -16459024.640 -14620447.868 -12900513.624 10 0 60291 7200.00000 0 -17419083.611 -15683104.862 -10089409.910 10 0 60291 8100.00000 0 -18232097.104 -16392006.361 -7082541.352 10 0 60291 9000.00000 0 -18840144.309 -16759617.468 -3938272.549 10 0 60291 9900.00000 0 -19190856.534 -16810811.276 -717612.722 10 0 60291 10800.00000 0 -19239753.871 -16581605.603 2516965.664 10 0 60291 11700.00000 0 -18952266.535 -16117445.650 5702735.405 10 0 60291 12600.00000 0 -18305355.817 -15471105.717 8777926.848 10 0 60291 13500.00000 0 -17288666.338 -14700298.846 11682920.641 10 0 60291 14400.00000 0 -15905160.836 -13865095.292 14361398.152 10 0 60291 15300.00000 0 -14171210.303 -13025258.490 16761427.609 10 0 60291 16200.00000 0 -12116134.875 -12237610.462 18836465.425 10 0 60291 17100.00000 0 -9781213.621 -11553537.126 20546253.909 10 0 60291 18000.00000 0 -7218203.320 -11016738.076 21857598.515 10 0 60291 18900.00000 0 -4487426.555 -10661315.049 22745010.116 10 0 60291 19800.00000 0 -1655507.151 -10510279.242 23191200.265 10 0 60291 20700.00000 0 1207154.412 -10574540.193 23187420.022 10 0 60291 21600.00000 0 4029062.242 -10852419.003 22733635.722 10 0 60291 22500.00000 0 6740352.956 -11329706.924 21838537.916 10 0 60291 23400.00000 0 9275458.125 -11980267.645 20519382.659 10 0 60291 24300.00000 0 11575591.518 -12767158.975 18801667.376 10 0 60291 25200.00000 0 13590958.353 -13644227.745 16718646.533 10 0 60291 26100.00000 0 15282594.903 -14558111.771 14310695.475 10 0 60291 27000.00000 0 16623761.899 -15450565.282 11624533.786 10 0 60291 27900.00000 0 17600833.581 -16261010.222 8712322.434 10 0 60291 28800.00000 0 18213645.155 -16929205.779 5630651.778 10 0 60291 29700.00000 0 18475284.200 -17397923.061 2439439.951 10 0 60291 30600.00000 0 18411335.014 -17615511.147 -799236.784 10 0 60291 31500.00000 0 18058608.124 -17538244.950 -4022358.312 10 0 60291 32400.00000 0 17463409.248 -17132354.347 -7167195.173 10 0 60291 33300.00000 0 16679421.555 -16375647.440 -10172538.254 10 0 60291 34200.00000 0 15765291.749 -15258657.975 -12979898.635 10 0 60291 35100.00000 0 14782023.004 -13785267.259 -15534653.278 10 0 60291 36000.00000 0 13790285.961 -11972773.265 -17787113.480 10 0 60291 36900.00000 0 12847762.266 -9851403.192 -19693494.698 10 0 60291 37800.00000 0 12006633.480 -7463289.299 -21216768.698 10 0 60291 38700.00000 0 11311321.655 -4860950.516 -22327381.515 10 0 60291 39600.00000 0 10796576.908 -2105343.072 -23003823.606 10 0 60291 40500.00000 0 10485992.286 736438.664 -23233041.669 10 0 60291 41400.00000 0 10391007.905 3593715.536 -23010684.805 10 0 60291 42300.00000 0 10510445.546 6394925.082 -22341180.945 10 0 60291 43200.00000 0 10830592.429 9070359.230 -21237642.732 10 0 60291 44100.00000 0 11325829.746 11554825.000 -19721605.242 10 0 60291 45000.00000 0 11959778.697 13790118.407 -17822601.085 10 0 60291 45900.00000 0 12686915.080 15727209.697 -15577581.445 10 0 60291 46800.00000 0 13454583.912 17328050.231 -13030194.435 10 0 60291 47700.00000 0 14205328.857 18566927.081 -10229934.922 10 0 60291 48600.00000 0 14879438.052 19431310.351 -7231182.311 10 0 60291 49500.00000 0 15417599.003 19922159.360 -4092144.948 10 0 60291 50400.00000 0 15763550.559 20053676.389 -873731.655 10 0 60291 51300.00000 0 15866620.272 19852519.710 2361627.797 10 0 60291 52200.00000 0 15684040.166 19356510.134 5551190.422 10 0 60291 53100.00000 0 15182943.368 18612886.349 8633112.667 10 0 60291 54000.00000 0 14341957.338 17676183.046 11547644.621 10 0 60291 54900.00000 0 13152326.364 16605821.374 14238282.973 10 0 60291 55800.00000 0 11618515.606 15463513.104 16652860.711 10 0 60291 56700.00000 0 9758270.529 14310587.413 18744552.980 10 0 60291 57600.00000 0 7602128.166 13205352.207 20472780.166 10 0 60291 58500.00000 0 5192399.318 12200600.294 21803991.306 10 0 60291 59400.00000 0 2581662.659 11341364.556 22712313.151 10 0 60291 60300.00000 0 -169168.205 10663015.828 23180052.755 10 0 60291 61200.00000 0 -2993125.969 10189782.934 23198044.019 10 0 60291 62100.00000 0 -5819725.992 9933756.870 22765831.426 10 0 60291 63000.00000 0 -8577654.005 9894420.976 21891687.075 10 0 60291 63900.00000 0 -11197494.774 10058727.213 20592460.039 10 0 60291 64800.00000 0 -13614389.393 10401715.878 18893260.116 10 0 60291 65700.00000 0 -15770511.447 10887653.371 16826981.070 10 0 60291 66600.00000 0 -17617259.334 11471640.823 14433671.577 10 0 60291 67500.00000 0 -19117073.475 12101626.393 11759765.054 10 0 60291 68400.00000 0 -20244802.494 12720736.746 8857182.537 10 0 60291 69300.00000 0 -20988561.007 13269829.317 5782325.520 10 0 60291 70200.00000 0 -21350042.919 13690157.206 2594978.149 10 0 60291 71100.00000 0 -21344277.059 13926033.364 -642859.667 10 0 60291 72000.00000 0 -20998835.540 13927380.300 -3868184.989 10 0 60291 72900.00000 0 -20352528.590 13652056.204 -7018225.956 10 0 60291 73800.00000 0 -19453641.513 13067857.643 -10031672.303 10 0 60291 74700.00000 0 -18357788.964 12154112.689 -12849877.196 10 0 60291 75600.00000 0 -17125478.062 10902795.817 -15418006.047 10 0 60291 76500.00000 0 -15819484.131 9319116.232 -17686109.137 10 0 60291 77400.00000 0 -14502150.679 7421553.834 -19610096.611 10 0 60291 78300.00000 0 -13232728.118 5241340.422 -21152596.654 10 0 60291 79200.00000 0 -12064863.762 2821407.251 -22283680.245 10 0 60291 80100.00000 0 -11044348.836 214842.554 -22981438.701 10 0 60291 81000.00000 0 -10207217.007 -2517076.860 -23232403.359 10 0 60291 81900.00000 0 -9578273.730 -5307198.149 -23031799.893 10 0 60291 82800.00000 0 -9170117.363 -8085053.000 -22383633.042 10 0 60291 83700.00000 0 -8982692.053 -10779560.064 -21300600.749 10 0 60291 84600.00000 0 -9003389.997 -13321757.308 -19803839.960 10 0 60291 85500.00000 0 -9207697.573 -15647451.277 -17922509.452 10 0 60292 0.00000 0 -9560356.996 -17699673.681 -15693218.305 10 0 60292 900.00000 0 -10016993.848 -19430845.095 -13159310.044 10 0 60292 1800.00000 0 -10526140.625 -20804554.012 -10370019.474 10 0 60292 2700.00000 0 -11031571.097 -21796881.978 -7379514.662 10 0 60292 3600.00000 0 -11474846.190 -22397217.934 -4245845.513 10 0 60292 4500.00000 0 -11797963.912 -22608530.180 -1029818.242 10 0 60292 5400.00000 0 -11946001.403 -22447085.640 2206182.280 10 0 60292 6300.00000 0 -11869637.533 -21941629.305 5399399.522 10 0 60292 7200.00000 0 -11527449.614 -21132059.232 8487918.304 10 0 60292 8100.00000 0 -10887887.260 -20067653.390 11411860.460 10 0 60292 9000.00000 0 -9930839.992 -18804923.200 14114540.302 10 0 60292 9900.00000 0 -8648732.168 -17405184.013 16543557.839 10 0 60292 10800.00000 0 -7047098.527 -15931944.326 18651809.077 10 0 60292 11700.00000 0 -5144615.201 -14448222.850 20398394.430 10 0 60292 12600.00000 0 -2972583.615 -13013905.372 21749408.183 10 0 60292 13500.00000 0 -573887.324 -11683251.496 22678594.319 10 0 60292 14400.00000 0 1998536.427 -10502655.001 23167856.376 10 0 60292 15300.00000 0 4683648.541 -9508751.007 23207611.688 10 0 60292 16200.00000 0 7414603.896 -8726948.752 22796983.104 10 0 60292 17100.00000 0 10121297.430 -8170451.149 21943824.116 10 0 60292 18000.00000 0 12733056.097 -7839802.160 20664576.304 10 0 60292 18900.00000 0 15181365.972 -7722981.118 18983960.996 10 0 60292 19800.00000 0 17402521.939 -7796040.344 16934510.092 10 0 60292 20700.00000 0 19340090.029 -8024259.594 14555944.099 10 0 60292 21600.00000 0 20947079.936 -8363769.104 11894408.453 10 0 60292 22500.00000 0 22187736.814 -8763573.019 9001582.098 10 0 60292 23400.00000 0 23038877.085 -9167887.771 5933675.177 10 0 60292 24300.00000 0 23490711.917 -9518696.300 2750335.082 10 0 60292 25200.00000 0 23547123.474 -9758409.435 -486517.638 10 0 60292 26100.00000 0 23225382.171 -9832520.859 -3713900.349 10 0 60292 27000.00000 0 22555316.884 -9692142.055 -6869001.954 10 0 60292 27900.00000 0 21577973.383 -9296308.512 -9890414.119 10 0 60292 28800.00000 0 20343818.086 -8613958.149 -12719335.015 10 0 60292 29700.00000 0 18910563.619 -7625496.842 -15300721.177 10 0 60292 30600.00000 0 17340708.618 -6323883.582 -17584364.271 10 0 60292 31500.00000 0 15698896.279 -4715188.291 -19525871.227 10 0 60292 32400.00000 0 14049203.541 -2818597.841 -21087528.419 10 0 60292 33300.00000 0 12452475.376 -665869.167 -22239033.182 10 0 60292 34200.00000 0 10963816.376 1699748.185 -22958078.728 10 0 60292 35100.00000 0 9630344.765 4225075.463 -23230781.651 10 0 60292 36000.00000 0 8489302.480 6848989.183 -23051944.391 10 0 60292 36900.00000 0 7566599.702 9504744.148 -22425148.233 10 0 60292 37800.00000 0 6875853.651 12122538.622 -21362675.721 10 0 60292 38700.00000 0 6417960.577 14632215.222 -19885264.547 10 0 60292 39600.00000 0 6181217.412 16965985.575 -18021698.121 10 0 60292 40500.00000 0 6141986.498 19061065.925 -15808241.106 10 0 60292 41400.00000 0 6265874.056 20862114.633 -13287930.989 10 0 60292 42300.00000 0 6509371.600 22323370.838 -10509739.607 10 0 60292 43200.00000 0 6821890.167 23410405.966 -7527620.886 10 0 60292 44100.00000 0 7148100.848 24101416.019 -4399463.278 10 0 60292 45000.00000 0 7430482.352 24388001.637 -1185967.249 10 0 60292 45900.00000 0 7611967.716 24275404.339 2050530.428 10 0 60292 46800.00000 0 7638578.255 23782190.038 5247262.834 10 0 60292 47700.00000 0 7461933.432 22939393.895 8342246.183 10 0 60292 48600.00000 0 7041530.635 21789163.014 11275476.872 10 0 60292 49500.00000 0 6346698.542 20382954.275 13990089.396 10 0 60292 50400.00000 0 5358141.458 18779362.989 16433453.043 10 0 60292 51300.00000 0 4069009.094 17041673.234 18558186.631 10 0 60292 52200.00000 0 2485446.008 15235232.045 20323072.203 10 0 60292 53100.00000 0 626596.552 13424756.821 21693850.576 10 0 60292 54000.00000 0 -1475936.319 11671687.795 22643883.863 10 0 60292 54900.00000 0 -3779157.427 10031695.469 23154672.603 10 0 60292 55800.00000 0 -6230228.251 8552446.386 23216217.663 10 0 60292 56700.00000 0 -8768435.647 7271719.921 22827219.890 10 0 60292 57600.00000 0 -11327500.276 6215954.208 21995113.325 10 0 60292 58500.00000 0 -13838130.272 5399281.690 20735930.713 10 0 60292 59400.00000 0 -16230715.242 4823094.432 19074003.086 10 0 60292 60300.00000 0 -18438049.455 4476157.388 17041498.209 10 0 60292 61200.00000 0 -20397971.291 4335264.962 14677805.782 10 0 60292 62100.00000 0 -22055809.055 4366413.315 12028780.335 10 0 60292 63000.00000 0 -23366530.850 4526439.122 9145855.649 10 0 60292 63900.00000 0 -24296508.088 4765055.532 6085047.382 10 0 60292 64800.00000 0 -24824818.202 5027198.971 2905863.101 10 0 60292 65700.00000 0 -24944031.285 5255586.983 -329858.962 10 0 60292 66600.00000 0 -24660447.094 5393377.899 -3559159.261 10 0 60292 67500.00000 0 -23993772.149 5386818.605 -6719190.071 10 0 60292 68400.00000 0 -22976250.456 5187766.898 -9748447.408 10 0 60292 69300.00000 0 -21651284.713 4755980.204 -12587976.673 10 0 60292 70200.00000 0 -20071606.524 4061072.356 -15182527.538 10 0 60292 71100.00000 0 -18297073.278 3084054.320 -17481634.820 10 0 60292 72000.00000 0 -16392185.126 1818392.596 -19440603.684 10 0 60292 72900.00000 0 -14423427.095 270539.604 -21021379.787 10 0 60292 73800.00000 0 -12456548.424 -1540087.145 -22193287.509 10 0 60292 74700.00000 0 -10553893.533 -3581676.898 -22933622.205 10 0 60292 75600.00000 0 -8771896.374 -5811125.132 -23228085.546 10 0 60292 76500.00000 0 -7158842.606 -8175615.058 -23071056.121 10 0 60292 77400.00000 0 -5752992.463 -10614615.433 -22465690.752 10 0 60292 78300.00000 0 -4581141.643 -13062211.624 -21423855.214 10 0 60292 79200.00000 0 -3657679.042 -15449673.082 -19965886.258 10 0 60292 80100.00000 0 -2984179.135 -17708150.534 -18120189.995 10 0 60292 81000.00000 0 -2549544.392 -19771390.952 -15922684.742 10 0 60292 81900.00000 0 -2330690.061 -21578357.622 -13416099.303 10 0 60292 82800.00000 0 -2293740.974 -23075646.598 -10649140.417 10 0 60292 83700.00000 0 -2395688.666 -24219599.390 -7675545.570 10 0 60292 84600.00000 0 -2586437.863 -24978024.334 -4553039.508 10 0 60292 85500.00000 0 -2811155.195 -25331455.464 -1342214.782 99